Volver al catálogo

RADIO 5

ActivoRadioaficionadoPO
NORAD 12999·PAYLOAD·🇷🇺 Russia

Lanzado Dec 17, 1981 desde Plesetsk Cosmodrome

Loading…

Próximos Pases (próximas 24 horas)

TLE

ActualizadoSource: Space-Track

Época: Sep 14, 2026, 08:47 UTC

1 12999U 81120C   26257.36598844  .00000079  00000-0  80498-3 0  9999
2 12999  82.9619  36.9364 0015656 131.9445 255.6297 12.05315361968329

Sigue RADIO 5 en tiempo real con AllMySat

Download on the App Store